Location: Carrières
(48.9495°N, 2.0407°E)
Time: 23:34:57
(UTC+00:00)

SL-08 R/B - Pass Details

Date: 28 January 2023
Orbit: 947 x 992 km, 83.0° (Epoch: 01 April)

Event Time Altitude Azimuth Distance (km) Brightness Sun altitude
Rises 19:03:48 0° 351° (N) 3,662 7.6 -23.2°
Reaches altitude 10° 19:06:19 10° 354° (N) 2,718 6.9 -23.6°
Maximum altitude 19:12:33 72° 79° (E) 1,026 4.3 -24.6°
Enters shadow 19:17:37 16° 162° (SSE) 2,298 6.2 -25.4°
